GW3791 Weather Reports


time (UTC)temp
C
wind
direction
speed
KPH
gust
KPH
rain 1hr
cm
rain 24hr
cm
rain mn
cm
humidity
%
barometer
mb
20260506203841 15 312 3.2 6.4 0.00 0.56 0.56 99 1006.8
20260506203338 15 322 3.2 11.3 0.00 0.56 0.56 99 1006.8
20260506202834 15 282 4.8 11.3 0.00 0.56 0.56 99 1006.8
20260506202332 15 282 3.2 4.8 0.00 0.56 0.56 99 1006.8
20260506201828 15 25 3.2 9.7 0.00 0.56 0.56 99 1006.8
20260506201326 15 14 1.6 8.0 0.00 0.56 0.56 99 1006.7
20260506200822 15 259 3.2 4.8 0.00 0.56 0.56 99 1006.9
20260506200318 15 356 3.2 6.4 0.00 0.56 0.56 99 1006.9
20260506195814 15 30 1.6 6.4 0.00 0.56 0.56 99 1006.9
20260506195312 15 117 1.6 4.8 0.00 0.56 0.56 99 1007.2
20260506194809 15 172 4.8 12.9 0.00 0.56 0.56 99 1007.0
20260506194305 15 0 3.2 4.8 0.00 0.56 0.56 99 1006.9
20260506193803 15 316 1.6 4.8 0.05 0.56 0.56 99 1007.2
20260506193259 15 266 1.6 8.0 0.05 0.56 0.56 99 1007.4
20260506192755 15 263 3.2 6.4 0.00 0.53 0.53 99 1007.5
20260506192253 15 287 1.6 6.4 0.05 0.53 0.53 99 1007.7
20260506191750 15 349 3.2 4.8 0.13 0.53 0.53 99 1007.6
20260506191246 15 112 6.4 8.0 0.05 0.51 0.51 99 1007.5
20260506190744 15 209 1.6 6.4 0.05 0.51 0.51 99 1007.7
20260506190240 15 272 8.0 14.5 0.18 0.51 0.51 99 1007.7
20260506185737 15 347 4.8 6.4 0.18 0.48 0.48 99 1007.9
20260506185233 15 69 3.2 9.7 0.13 0.46 0.46 99 1007.7
20260506184731 15 267 3.2 8.0 0.18 0.46 0.46 99 1007.6
20260506184228 15 344 4.8 9.7 0.23 0.46 0.46 99 1007.9
20260506183724 15 133 3.2 11.3 0.18 0.43 0.43 99 1007.7
20260506183220 15 330 3.2 4.8 0.13 0.41 0.41 99 1007.9
20260506182718 15 68 4.8 6.4 0.13 0.38 0.38 99 1007.9
20260506182215 15 281 3.2 9.7 0.13 0.38 0.38 99 1008.0
20260506181713 15 107 8.0 22.5 0.13 0.38 0.38 98 1007.9
20260506181210 15 27 1.6 11.3 0.13 0.36 0.36 98 1008.1
20260506180707 15 316 6.4 9.7 0.13 0.36 0.36 98 1008.2
20260506180203 15 253 1.6 11.3 0.18 0.33 0.33 98 1008.3
20260506175659 15 335 1.6 8.0 0.18 0.33 0.33 98 1008.0
20260506175156 15 110 9.7 12.9 0.13 0.30 0.30 97 1008.1
20260506174649 15 124 8.0 11.3 0.00 0.28 0.28 97 1008.3
20260506174145 15 22 3.2 6.4 0.00 0.28 0.28 97 1008.3
20260506173643 15 279 4.8 12.9 0.00 0.28 0.28 97 1008.2
20260506173134 15 287 4.8 11.3 0.00 0.28 0.28 97 1008.2
20260506172631 15 358 8.0 9.7 0.00 0.28 0.28 98 1008.2
20260506172127 15 190 3.2 11.3 0.00 0.28 0.28 98 1008.2
20260506171625 15 95 1.6 8.0 0.05 0.28 0.28 98 1008.1
20260506171122 15 318 4.8 6.4 0.05 0.28 0.28 97 1008.0
20260506170619 15 1 6.4 9.7 0.05 0.28 0.28 98 1008.2
20260506170111 15 55 3.2 4.8 0.05 0.28 0.28 97 1008.3
20260506165609 15 294 4.8 8.0 0.00 0.28 0.28 97 1008.2
20260506165059 15 352 4.8 11.3 0.05 0.28 0.28 97 1008.2
20260506164557 15 358 6.4 11.3 0.13 0.28 0.28 97 1008.0
20260506164054 15 12 4.8 9.7 0.13 0.25 0.25 97 1008.3
20260506163549 15 240 6.4 11.3 0.13 0.25 0.25 97 1008.1
20260506163045 15 347 3.2 8.0 0.13 0.23 0.23 97 1008.2
20260506162541 15 175 1.6 8.0 0.13 0.23 0.23 97 1008.2
20260506162034 15 18 3.2 8.0 0.23 0.23 0.23 97 1008.5
20260506161531 15 15 3.2 9.7 0.30 0.20 0.20 96 1008.8
20260506161028 15 59 0.0 9.7 0.23 0.18 0.18 96 1008.9
20260506160525 15 39 8.0 14.5 0.23 0.15 0.15 96 1009.2
20260506160022 15 23 3.2 12.9 0.18 0.13 0.13 95 1009.2
20260506155521 16 13 4.8 8.0 0.05 0.10 0.10 95 1009.2
20260506153652 16 347 1.6 6.4 0.05 0.10 0.10 94 1009.0
20260506153149 16 62 3.2 11.3 0.05 0.08 0.08 93 1009.1
20260506152646 16 32 3.2 4.8 0.13 0.08 0.08 92 1009.2
20260506152143 16 353 0.0 4.8 0.18 0.08 0.08 92 1009.3
20260506151642 16 89 1.6 6.4 0.18 0.05 0.05 91 1009.2
20260506151138 16 353 4.8 6.4 0.13 0.05 0.05 90 1009.2
20260506150635 16 15 3.2 6.4 0.13 0.03 0.03 89 1009.0
20260506150132 16 337 4.8 14.5 0.13 0.03 0.03 87 1009.3
20260506145629 17 355 3.2 20.9 0.00 0.00 0.00 85 1009.4
20260506145126 17 10 3.2 6.4 0.00 0.00 0.00 82 1009.7
20260506144624 17 176 3.2 11.3 0.00 0.00 0.00 81 1009.6
20260506144120 17 285 1.6 16.1 0.00 0.00 0.00 81 1009.4
20260506143618 17 277 3.2 8.0 0.00 0.00 0.00 81 1009.5
20260506143116 17 46 4.8 11.3 0.00 0.00 0.00 81 1009.8
20260506142614 17 228 1.6 11.3 0.00 0.00 0.00 81 1009.5
20260506142112 17 326 4.8 9.7 0.00 0.00 0.00 81 1009.4
20260506141609 17 194 4.8 11.3 0.00 0.00 0.00 80 1009.2
20260506141107 17 337 6.4 9.7 0.00 0.00 0.00 80 1009.0
20260506140604 17 15 6.4 8.0 0.00 0.00 0.00 80 1009.3
20260506135558 17 320 8.0 11.3 0.00 0.00 0.00 80 1009.4
20260506135054 17 333 4.8 6.4 0.00 0.00 0.00 80 1009.5
20260506134551 17 86 1.6 9.7 0.00 0.00 0.00 80 1009.3
20260506134047 17 352 3.2 11.3 0.00 0.00 0.00 80 1009.4
20260506133544 17 346 3.2 9.7 0.00 0.00 0.00 80 1009.6
20260506133041 17 27 4.8 11.3 0.00 0.00 0.00 79 1009.6
20260506132539 17 80 11.3 14.5 0.00 0.00 0.00 79 1009.9
20260506132036 17 279 4.8 24.1 0.00 0.00 0.00 79 1009.6
20260506131533 17 244 1.6 16.1 0.00 0.00 0.00 78 1009.6
20260506131029 17 60 3.2 17.7 0.00 0.00 0.00 78 1009.5
20260506130526 18 269 0.0 9.7 0.00 0.00 0.00 77 1009.2
20260506130024 17 21 3.2 9.7 0.00 0.00 0.00 78 1009.6
20260506125522 17 4 6.4 16.1 0.00 0.00 0.00 79 1009.6
20260506125019 17 144 3.2 12.9 0.00 0.00 0.00 79 1009.5
20260506124517 17 320 6.4 9.7 0.00 0.00 0.00 79 1009.5
20260506124015 17 45 3.2 19.3 0.00 0.00 0.00 79 1009.2
20260506123512 17 351 4.8 9.7 0.00 0.00 0.00 79 1009.2
20260506123010 17 287 3.2 19.3 0.00 0.00 0.00 78 1009.2
20260506122506 17 295 4.8 9.7 0.00 0.00 0.00 79 1009.2
20260506122005 17 343 12.9 17.7 0.00 0.00 0.00 79 1009.3
20260506121502 17 292 6.4 12.9 0.00 0.00 0.00 79 1009.5
20260506120958 17 36 4.8 14.5 0.00 0.00 0.00 80 1009.4
20260506120456 17 121 3.2 14.5 0.00 0.00 0.00 80 1009.4
20260506115953 17 172 1.6 9.7 0.00 0.00 0.00 81 1009.5
20260506115451 17 137 1.6 17.7 0.00 0.00 0.00 81 1009.4
20260506114949 17 276 4.8 9.7 0.00 0.00 0.00 81 1009.4
20260506114446 17 156 3.2 6.4 0.00 0.00 0.00 81 1009.4
20260506113945 17 294 0.0 4.8 0.00 0.00 0.00 81 1009.6
20260506113442 17 14 4.8 8.0 0.00 0.00 0.00 82 1009.6
20260506112938 17 21 1.6 9.7 0.00 0.00 0.00 81 1009.4
20260506112436 17 320 8.0 14.5 0.00 0.00 0.00 82 1009.7
20260506111933 17 24 3.2 9.7 0.00 0.00 0.00 82 1009.5
20260506111431 16 262 4.8 17.7 0.00 0.00 0.00 82 1009.4
20260506110928 16 53 3.2 16.1 0.00 0.00 0.00 82 1009.5
20260506110426 16 213 4.8 14.5 0.00 0.00 0.00 83 1009.2
20260506105922 16 10 3.2 14.5 0.00 0.00 0.00 83 1009.3
20260506105418 16 21 8.0 11.3 0.00 0.00 0.00 83 1009.4
20260506104916 16 15 4.8 14.5 0.00 0.00 0.00 83 1009.3
20260506104414 16 13 4.8 11.3 0.00 0.00 0.00 83 1009.3
20260506103912 16 319 3.2 11.3 0.00 0.00 0.00 83 1009.1
20260506103409 16 55 6.4 9.7 0.00 0.00 0.00 83 1009.0
20260506102906 16 113 0.0 17.7 0.00 0.00 0.00 83 1009.1
20260506102404 16 29 0.0 6.4 0.00 0.00 0.00 83 1009.3
20260506101901 16 102 0.0 11.3 0.00 0.00 0.00 82 1009.4
20260506101357 16 0 0.0 11.3 0.00 0.00 0.00 82 1009.2
20260506100854 16 244 4.8 11.3 0.00 0.00 0.00 82 1009.1
20260506100353 16 286 8.0 14.5 0.00 0.00 0.00 82 1008.8
20260506095850 16 10 6.4 11.3 0.00 0.00 0.00 82 1009.0
20260506095348 17 40 6.4 11.3 0.00 0.00 0.00 82 1009.3
20260506094844 17 232 4.8 25.7 0.00 0.00 0.00 81 1009.4
20260506094343 16 252 6.4 14.5 0.00 0.00 0.00 82 1009.1
20260506093841 16 11 8.0 16.1 0.00 0.00 0.00 82 1009.1
20260506093338 16 48 1.6 11.3 0.00 0.00 0.00 81 1009.0
20260506092836 17 337 6.4 11.3 0.00 0.00 0.00 81 1008.9
20260506092333 17 316 4.8 8.0 0.00 0.00 0.00 81 1009.0
20260506091830 17 331 1.6 8.0 0.00 0.00 0.00 81 1009.2
20260506091328 17 349 3.2 6.4 0.00 0.00 0.00 81 1009.3
20260506090825 17 66 1.6 8.0 0.00 0.00 0.00 81 1009.2
20260506090322 17 300 4.8 9.7 0.00 0.00 0.00 80 1009.0
20260506085819 17 351 6.4 9.7 0.00 0.00 0.00 81 1009.3
20260506085315 17 16 4.8 29.0 0.00 0.00 0.00 80 1009.0
20260506084812 16 63 6.4 11.3 0.00 0.00 0.00 80 1009.3
20260506084308 16 345 4.8 6.4 0.00 0.00 0.00 80 1009.2
20260506083805 16 331 9.7 9.7 0.00 0.00 0.00 80 1009.3
20260506083303 16 2 6.4 8.0 0.00 0.00 0.00 79 1009.4
20260506082800 16 283 6.4 11.3 0.00 0.00 0.00 79 1009.2
20260506082256 16 37 3.2 6.4 0.00 0.00 0.00 78 1009.3
20260506081753 17 139 3.2 14.5 0.00 0.00 0.00 78 1009.3
20260506081251 17 26 3.2 8.0 0.00 0.00 0.00 77 1009.4
20260506080749 17 64 1.6 11.3 0.00 0.00 0.00 76 1009.5
20260506080245 17 30 3.2 12.9 0.00 0.00 0.00 76 1009.6
20260506073229 17 254 0.0 6.4 0.00 0.00 0.00 72 1009.5
20260506072725 17 147 3.2 14.5 0.00 0.00 0.00 71 1009.5
20260506072223 17 106 4.8 9.7 0.00 0.00 0.00 71 1009.7
20260506071721 17 55 4.8 8.0 0.00 0.00 0.00 71 1009.6
20260506071218 18 46 4.8 6.4 0.00 0.00 0.00 70 1009.4
20260506070715 18 331 3.2 8.0 0.00 0.00 0.00 70 1009.4
20260506070212 18 56 4.8 11.3 0.00 0.00 0.00 69 1009.4
20260506062149 18 115 1.6 16.1 0.00 0.00 0.00 67 1010.1
20260506061645 18 210 3.2 20.9 0.00 0.00 0.00 66 1010.0
20260506061143 18 79 4.8 8.0 0.00 0.00 0.00 66 1009.8
20260506060641 18 303 6.4 8.0 0.00 0.00 0.00 66 1010.0
20260506060138 18 99 0.0 8.0 0.00 0.00 0.00 65 1010.1
20260506051110 18 335 8.0 11.3 0.00 0.00 0.00 65 1010.2
20260506050608 18 27 0.0 6.4 0.00 0.00 0.00 64 1010.4
20260506050105 18 125 3.2 12.9 0.00 0.00 0.00 64 1010.2
20260506045058 18 4 3.2 14.5 0.00 0.00 0.00 65 1010.3
20260506044556 18 3 0.0 11.3 0.00 0.00 0.00 65 1010.4
20260506044052 18 205 4.8 14.5 0.00 0.00 0.00 65 1010.2
20260506043549 18 145 0.0 11.3 0.00 0.00 0.00 65 1010.5
20260506043048 18 32 6.4 8.0 0.00 0.00 0.00 65 1010.5
20260506042547 18 50 3.2 9.7 0.00 0.00 0.00 65 1010.3
20260506042044 18 43 11.3 11.3 0.00 0.00 0.00 65 1010.4
20260506041543 18 352 1.6 11.3 0.00 0.00 0.00 64 1010.1
20260506041039 18 43 1.6 12.9 0.00 0.00 0.00 65 1010.4
20260506040537 19 348 6.4 11.3 0.00 0.00 0.00 64 1010.3
20260506040032 19 281 3.2 11.3 0.00 0.05 0.05 64 1010.2
20260506035530 18 347 3.2 11.3 0.00 0.05 0.05 64 1010.2
20260506035026 19 26 3.2 17.7 0.00 0.05 0.05 63 1010.3
20260506034524 19 356 11.3 14.5 0.00 0.05 0.05 63 1010.1
20260506034021 19 4 6.4 9.7 0.00 0.05 0.05 63 1010.4
20260506033518 19 0 3.2 14.5 0.00 0.05 0.05 62 1010.4
20260506033015 19 332 3.2 9.7 0.00 0.05 0.05 61 1010.2
20260506032513 19 7 0.0 6.4 0.00 0.05 0.05 60 1010.3
20260506032009 20 15 6.4 17.7 0.00 0.05 0.05 58 1010.0
20260506031507 20 82 1.6 11.3 0.00 0.05 0.05 57 1010.4
20260506031004 20 312 3.2 9.7 0.00 0.05 0.05 56 1010.1
20260506030502 20 23 4.8 11.3 0.00 0.05 0.05 55 1010.2
20260506025958 20 4 8.0 14.5 0.00 0.05 0.05 54 1010.2
20260506025455 20 91 3.2 17.7 0.00 0.05 0.05 54 1010.2
20260506024952 20 296 6.4 9.7 0.00 0.05 0.05 53 1010.2
20260506024448 20 304 0.0 14.5 0.00 0.05 0.05 52 1010.3
20260506023944 20 61 1.6 8.0 0.00 0.05 0.05 52 1010.0
20260506023441 20 336 3.2 8.0 0.00 0.05 0.05 51 1009.9
20260506022938 20 144 3.2 9.7 0.00 0.05 0.05 52 1010.3
20260506022436 21 201 4.8 16.1 0.00 0.05 0.05 50 1010.2
20260506021934 21 142 0.0 9.7 0.00 0.05 0.05 50 1010.1
20260506021430 21 25 4.8 6.4 0.00 0.05 0.05 50 1010.0
20260506020927 21 274 0.0 8.0 0.00 0.05 0.05 50 1009.9
20260506020425 21 64 6.4 6.4 0.00 0.05 0.05 49 1010.2
20260506015922 21 75 1.6 24.1 0.00 0.05 0.05 49 1010.3
20260506015420 21 129 6.4 11.3 0.00 0.05 0.05 49 1010.2
20260506014916 21 238 6.4 22.5 0.00 0.05 0.05 48 1010.3
20260506014414 21 16 6.4 9.7 0.00 0.05 0.05 49 1009.7
20260506013910 21 244 3.2 14.5 0.00 0.05 0.05 49 1009.9
20260506013408 21 327 4.8 8.0 0.00 0.05 0.05 49 1010.0
20260506012904 21 225 1.6 11.3 0.00 0.05 0.05 49 1009.9
20260506012401 21 355 3.2 8.0 0.00 0.05 0.05 48 1009.7
20260506011858 21 78 8.0 12.9 0.00 0.05 0.05 48 1009.9
20260506011355 21 69 1.6 8.0 0.00 0.05 0.05 48 1009.7
20260506010852 22 287 3.2 14.5 0.00 0.05 0.05 47 1009.9
20260506010350 22 101 4.8 9.7 0.00 0.05 0.05 46 1009.6
20260506005847 22 71 6.4 20.9 0.00 0.05 0.05 45 1009.4
20260506005344 22 347 8.0 11.3 0.00 0.05 0.05 44 1009.7
20260506004839 22 359 6.4 9.7 0.00 0.05 0.05 44 1009.6
20260506004337 22 46 1.6 8.0 0.00 0.05 0.05 43 1009.3
20260506003833 22 76 1.6 8.0 0.00 0.05 0.05 43 1009.3
20260506003329 22 241 4.8 16.1 0.00 0.05 0.05 42 1009.4
20260506002826 22 289 0.0 6.4 0.00 0.05 0.05 42 1009.5
20260506002323 22 352 4.8 11.3 0.00 0.05 0.05 41 1009.2
20260506001818 22 117 0.0 9.7 0.00 0.05 0.05 41 1009.4
20260506001316 22 312 8.0 14.5 0.00 0.05 0.05 41 1009.4
20260506000812 23 237 4.8 16.1 0.00 0.05 0.05 40 1009.0
20260506000310 22 345 4.8 9.7 0.00 0.05 0.05 41 1009.1
20260505235807 22 119 6.4 12.9 0.00 0.05 0.05 40 1009.1
20260505235305 23 358 4.8 6.4 0.00 0.05 0.05 40 1009.0
20260505234801 23 8 3.2 6.4 0.00 0.05 0.05 40 1009.0
20260505234259 23 15 3.2 9.7 0.00 0.05 0.05 39 1008.9
20260505233755 23 2 4.8 16.1 0.00 0.05 0.05 39 1009.0
20260505233253 23 284 4.8 9.7 0.00 0.05 0.05 38 1009.1
20260505232750 23 357 0.0 3.2 0.00 0.05 0.05 38 1008.9
20260505232248 23 355 6.4 12.9 0.00 0.05 0.05 38 1009.0
20260505231744 23 341 8.0 16.1 0.00 0.05 0.05 38 1009.0
20260505231243 23 30 1.6 12.9 0.00 0.05 0.05 38 1008.9
20260505230741 23 335 8.0 9.7 0.00 0.05 0.05 38 1008.7
20260505230237 24 301 9.7 24.1 0.00 0.05 0.05 37 1008.8
20260505225734 23 265 3.2 20.9 0.00 0.05 0.05 38 1008.8
20260505225231 24 284 6.4 11.3 0.00 0.05 0.05 38 1008.8
20260505224726 24 196 3.2 12.9 0.00 0.05 0.05 38 1008.7
20260505224224 24 336 1.6 8.0 0.00 0.05 0.05 37 1008.7
20260505223722 24 338 3.2 8.0 0.00 0.05 0.05 38 1008.5
20260505223218 24 7 6.4 11.3 0.00 0.05 0.05 37 1008.6
20260505222714 24 324 8.0 12.9 0.00 0.05 0.05 37 1008.4
20260505222210 25 275 6.4 12.9 0.00 0.05 0.05 36 1008.4
20260505221707 25 315 4.8 20.9 0.00 0.05 0.05 36 1008.4
20260505221204 25 246 3.2 29.0 0.00 0.05 0.05 35 1008.3
20260505220701 25 340 8.0 12.9 0.00 0.05 0.05 35 1008.3
20260505220159 25 255 3.2 25.7 0.00 0.05 0.05 37 1008.5
20260505215656 25 273 8.0 11.3 0.00 0.05 0.05 35 1008.4
20260505215154 25 235 6.4 12.9 0.00 0.05 0.05 35 1008.2
20260505214651 25 169 4.8 14.5 0.00 0.05 0.05 34 1008.3
20260505214148 25 277 8.0 17.7 0.00 0.05 0.05 34 1008.3
20260505213646 25 8 3.2 14.5 0.00 0.05 0.05 34 1008.3
20260505213143 25 88 4.8 16.1 0.00 0.05 0.05 34 1008.4
20260505212638 26 149 0.0 11.3 0.00 0.05 0.05 34 1008.4
20260505212136 26 307 8.0 20.9 0.00 0.05 0.05 34 1008.3
20260505211633 26 294 17.7 22.5 0.00 0.05 0.05 33 1008.1
20260505211130 26 324 4.8 20.9 0.00 0.05 0.05 34 1008.0
20260505210627 26 22 3.2 14.5 0.00 0.05 0.05 33 1008.1
20260505210124 25 296 9.7 17.7 0.00 0.05 0.05 34 1008.0
20260505205621 25 319 6.4 16.1 0.00 0.05 0.05 33 1007.8
20260505205119 25 214 3.2 16.1 0.00 0.05 0.05 33 1007.8
20260505204616 25 93 8.0 24.1 0.00 0.05 0.05 31 1007.9
20260505204114 26 321 4.8 14.5 0.00 0.05 0.05 31 1008.0